Location: Newark
(34.1333°N, 7.9667°W)
Time: 10:31:22
(UTC+00:00)

Tiros 1 despin weight - All Passes

Search period start: 15 June 2021 00:00
Search period end: 25 June 2021 00:00
Orbit: 593 x 641 km, 48.2° (Epoch: 14 June)

Date Brightness Start Highest point End Pass type
(mag) Time Alt. Az. Time Alt. Az. Time Alt. Az.
15 Jun - 05:59:03 10° S 06:02:09 19° SE 06:05:16 10° E daylight
15 Jun - 07:38:58 10° WSW 07:43:19 62° NW 07:47:42 10° NE daylight
15 Jun - 09:22:28 10° WNW 09:25:32 18° NNW 09:28:35 10° NNE daylight
15 Jun - 11:06:19 10° NNW 11:08:28 13° N 11:10:37 10° NNE daylight
15 Jun - 12:47:29 10° NNW 12:51:13 25° NNE 12:54:59 10° E daylight
15 Jun - 14:28:34 10° WNW 14:33:03 69° SW 14:37:34 10° SE daylight
16 Jun - 06:14:05 10° SSW 06:18:12 40° SE 06:22:21 10° ENE daylight
16 Jun - 07:55:45 10° W 07:59:46 34° NNW 08:03:48 10° NE daylight
16 Jun - 09:39:56 10° NW 09:42:20 14° N 09:44:44 10° NNE daylight
16 Jun - 11:22:40 10° NNW 11:25:19 15° NNE 11:27:59 10° NE daylight
16 Jun - 13:03:31 10° NW 13:07:45 41° NNE 13:12:02 10° ESE daylight
16 Jun - 14:45:11 10° WNW 14:49:12 32° SW 14:53:16 10° SSE daylight
17 Jun - 04:51:53 10° SSE 04:53:26 12° SE 04:54:58 10° ESE visible
17 Jun - 06:30:00 10° SW 06:34:25 87° SE 06:38:50 10° NE daylight
17 Jun - 08:12:55 10° WNW 08:16:22 22° NNW 08:19:49 10° NNE daylight
17 Jun - 09:57:09 10° NNW 09:59:11 13° N 10:01:15 10° NNE daylight
17 Jun - 11:38:45 10° NNW 11:42:05 20° NNE 11:45:26 10° ENE daylight
17 Jun - 13:19:39 10° NW 13:24:08 78° NE 13:28:40 10° SE daylight
17 Jun - 15:02:38 10° W 15:05:14 15° SW 15:07:51 10° SSW daylight
18 Jun - 05:05:46 10° S 05:09:26 26° SE 05:13:05 10° ENE daylight
18 Jun - 06:46:29 10° WSW 06:50:45 47° NNW 06:55:01 10° NE daylight
18 Jun - 08:30:20 10° NW 08:33:06 16° NNW 08:35:52 10° NNE daylight
18 Jun - 10:13:48 10° NNW 10:16:05 14° N 10:18:22 10° NE daylight
18 Jun - 11:54:46 10° NW 11:58:43 30° NNE 12:02:41 10° E daylight
18 Jun - 13:36:03 10° WNW 13:40:23 50° SW 13:44:46 10° SSE daylight
19 Jun - 05:21:13 10° SW 05:25:32 56° SE 05:29:51 10° ENE daylight
19 Jun - 07:03:26 10° W 07:07:15 28° NNW 07:11:04 10° NE daylight
19 Jun - 08:47:45 10° NW 08:49:56 13° N 08:52:07 10° NNE daylight
19 Jun - 10:30:00 10° NNW 10:32:54 17° NNE 10:35:48 10° ENE daylight
19 Jun - 12:10:50 10° NW 12:15:11 52° NE 12:19:35 10° ESE daylight
19 Jun - 13:52:54 10° W 13:56:29 24° SW 14:00:06 10° S daylight
20 Jun - 03:57:53 10° S 04:00:40 16° SE 04:03:27 10° E visible
20 Jun - 05:37:23 10° WSW 05:41:48 71° NW 05:46:11 10° NE daylight
20 Jun - 07:20:44 10° WNW 07:23:54 19° NNW 07:27:05 10° NNE daylight
20 Jun - 09:04:46 10° NNW 09:06:49 13° N 09:08:52 10° NNE daylight
20 Jun - 10:46:02 10° NNW 10:49:36 23° NNE 10:53:12 10° ENE daylight
20 Jun - 12:27:03 10° NW 12:31:30 79° SW 12:36:00 10° SE daylight
20 Jun - 14:11:31 10° WSW 14:12:28 11° SW 14:13:24 10° SW daylight
21 Jun - 04:12:40 10° SSW 04:16:43 35° SE 04:20:45 10° ENE visible
21 Jun - 05:54:05 10° W 05:58:11 37° NNW 06:02:19 10° NE daylight
21 Jun - 07:38:12 10° NW 07:40:41 15° N 07:43:11 10° NNE daylight
21 Jun - 09:21:12 10° NNW 09:23:40 15° N 09:26:10 10° NE daylight
21 Jun - 11:02:03 10° NW 11:06:10 37° NNE 11:10:20 10° E daylight
21 Jun - 12:43:35 10° WNW 12:47:41 37° SW 12:51:49 10° SSE daylight
22 Jun - 04:28:27 10° SW 04:32:53 77° SE 04:37:17 10° NE visible
22 Jun - 06:11:11 10° WNW 06:14:45 23° NNW 06:18:20 10° NNE daylight
22 Jun - 07:55:30 10° NNW 07:57:33 13° N 07:59:36 10° NNE daylight
22 Jun - 09:37:18 10° NNW 09:40:27 19° NNE 09:43:37 10° ENE daylight
22 Jun - 11:18:10 10° NW 11:22:35 69° NE 11:27:02 10° ESE daylight
22 Jun - 13:00:48 10° W 13:03:44 17° SW 13:06:42 10° S daylight
23 Jun - 03:04:27 10° S 03:07:56 23° SE 03:11:24 10° E visible
23 Jun - 04:44:51 10° WSW 04:49:12 54° NW 04:53:31 10° NE visible
23 Jun - 06:28:34 10° WNW 06:31:28 17° NNW 06:34:22 10° NNE daylight
23 Jun - 08:12:16 10° NNW 08:14:25 13° N 08:16:35 10° NE daylight
23 Jun - 09:53:18 10° NW 09:57:07 27° NNE 10:00:55 10° E daylight
23 Jun - 11:34:29 10° WNW 11:38:51 58° SW 11:43:14 10° SE daylight
24 Jun - 03:19:44 10° SSW 03:24:01 48° SE 03:28:17 10° ENE visible
24 Jun - 05:01:44 10° W 05:05:40 30° NNW 05:09:35 10° NE daylight
24 Jun - 06:46:01 10° NW 06:48:17 14° N 06:50:32 10° NNE daylight
24 Jun - 08:28:32 10° NNW 08:31:16 16° NNE 08:33:59 10° NE daylight
24 Jun - 10:09:21 10° NW 10:13:37 46° NNE 10:17:54 10° ESE daylight
24 Jun - 11:51:13 10° WNW 11:54:58 27° SW 11:58:44 10° S daylight
